| time (UTC) | temp F | wind direction | speed knots | gust knots | rain 1hr in | rain 24hr in | rain mn in | humidity % | barometer mb |
| 20260904131519 | 78 | 165 | 0.0 | 2.6 | 0.01 | 0.01 | 0.01 | 92 | 1006.5 |
| 20260904130017 | 78 | 126 | 0.0 | 3.5 | 0.00 | 0.00 | 0.00 | 92 | 1006.5 |
| 20260904124504 | 0 | 0.0 | 0.0 | 0.00 | 0.00 | 0.00 | 1006.1 | ||
| 20260904123059 | 0 | 0.0 | 0.0 | 0.00 | 0.00 | 0.00 | 1006.0 | ||
| 20260904121556 | 0 | 0.0 | 0.0 | 0.00 | 0.00 | 0.00 | 1005.9 | ||
| 20260904120103 | 0 | 0.0 | 0.0 | 0.00 | 0.00 | 0.00 | 1005.7 | ||
| 20260904114548 | 0 | 0.0 | 0.0 | 0.00 | 0.00 | 0.00 | 1005.5 | ||
| 20260904113042 | 0 | 0.0 | 0.0 | 0.00 | 0.00 | 0.00 | 1005.4 | ||
| 20260904111538 | 0 | 0.0 | 0.0 | 0.00 | 0.00 | 0.00 | 1005.4 | ||
| 20260904110034 | 0 | 0.0 | 0.0 | 0.00 | 0.00 | 0.00 | 1005.5 | ||
| 20260904104530 | 0 | 0.0 | 0.0 | 0.00 | 0.00 | 0.00 | 1005.3 | ||
| 20260904103025 | 0 | 0.0 | 0.0 | 0.00 | 0.00 | 0.00 | 1005.3 | ||
| 20260904101521 | 0 | 0.0 | 0.0 | 0.00 | 0.00 | 0.00 | 1005.2 | ||
| 20260904100017 | 0 | 0.0 | 0.0 | 0.00 | 0.00 | 0.00 | 1005.0 | ||
| 20260904094524 | 0 | 0.0 | 0.0 | 0.00 | 0.00 | 0.00 | 1004.9 | ||
| 20260904093008 | 79 | 193 | 2.6 | 5.2 | 0.00 | 0.00 | 0.00 | 89 | 1004.9 |
| 20260904091506 | 79 | 167 | 0.9 | 3.5 | 0.00 | 0.00 | 0.00 | 89 | 1005.0 |
| 20260904090006 | 79 | 143 | 1.7 | 5.2 | 0.00 | 0.00 | 0.00 | 89 | 1005.0 |
| 20260904084510 | 78 | 148 | 1.7 | 6.1 | 0.00 | 0.00 | 0.00 | 90 | 1005.0 |
| 20260904083003 | 78 | 148 | 2.6 | 6.1 | 0.00 | 0.00 | 0.00 | 90 | 1004.9 |
| 20260904081504 | 79 | 155 | 3.5 | 5.2 | 0.00 | 0.00 | 0.00 | 89 | 1004.9 |
| 20260904080100 | 79 | 130 | 3.5 | 6.1 | 0.00 | 0.00 | 0.00 | 88 | 1005.1 |
| 20260904074559 | 78 | 136 | 3.5 | 7.0 | 0.00 | 0.00 | 0.00 | 88 | 1005.1 |
| 20260904073058 | 78 | 141 | 0.9 | 3.5 | 0.00 | 0.00 | 0.00 | 88 | 1005.1 |
| 20260904071556 | 78 | 141 | 2.6 | 6.1 | 0.00 | 0.00 | 0.00 | 88 | 1005.1 |
| 20260904070059 | 79 | 158 | 4.3 | 7.0 | 0.00 | 0.00 | 0.00 | 87 | 1005.1 |
| 20260904064553 | 79 | 163 | 3.5 | 6.1 | 0.00 | 0.00 | 0.00 | 87 | 1005.2 |
| 20260904063058 | 79 | 144 | 1.7 | 6.1 | 0.00 | 0.00 | 0.00 | 87 | 1005.2 |
| 20260904061552 | 79 | 136 | 1.7 | 6.1 | 0.00 | 0.00 | 0.00 | 86 | 1005.3 |
| 20260904060051 | 79 | 131 | 2.6 | 7.0 | 0.00 | 0.00 | 0.00 | 86 | 1005.4 |
| 20260904054552 | 79 | 127 | 4.3 | 7.8 | 0.00 | 0.00 | 0.00 | 86 | 1005.4 |
| 20260904053048 | 79 | 137 | 1.7 | 7.0 | 0.00 | 0.00 | 0.00 | 86 | 1005.3 |
| 20260904051550 | 79 | 147 | 2.6 | 7.0 | 0.00 | 0.00 | 0.00 | 86 | 1005.3 |
| 20260904050045 | 79 | 105 | 3.5 | 6.1 | 0.00 | 0.00 | 0.00 | 85 | 1005.1 |
| 20260904044545 | 79 | 116 | 3.5 | 8.7 | 0.00 | 0.00 | 0.00 | 85 | 1005.3 |
| 20260904043050 | 79 | 101 | 3.5 | 7.8 | 0.00 | 0.00 | 0.00 | 84 | 1005.2 |
| 20260904041543 | 79 | 96 | 2.6 | 7.8 | 0.00 | 0.00 | 0.00 | 84 | 1005.2 |
| 20260904040045 | 80 | 82 | 5.2 | 9.6 | 0.00 | 0.00 | 0.00 | 84 | 1005.1 |
| 20260904034550 | 80 | 128 | 4.3 | 11.3 | 0.00 | 0.00 | 0.00 | 83 | 1005.1 |
| 20260904033040 | 80 | 124 | 4.3 | 9.6 | 0.00 | 0.00 | 0.00 | 82 | 1005.1 |
| 20260904031540 | 80 | 155 | 3.5 | 8.7 | 0.00 | 0.00 | 0.00 | 81 | 1005.1 |
| 20260904030040 | 81 | 119 | 3.5 | 8.7 | 0.00 | 0.00 | 0.00 | 80 | 1004.8 |
| 20260904024546 | 81 | 121 | 3.5 | 7.8 | 0.00 | 0.00 | 0.00 | 78 | 1004.8 |
| 20260904023045 | 82 | 117 | 3.5 | 6.1 | 0.00 | 0.00 | 0.00 | 77 | 1004.6 |
| 20260904021537 | 82 | 146 | 3.5 | 7.0 | 0.00 | 0.00 | 0.00 | 76 | 1004.4 |
| 20260904020037 | 83 | 140 | 2.6 | 7.8 | 0.00 | 0.00 | 0.00 | 76 | 1004.1 |
| 20260904014543 | 83 | 100 | 1.7 | 7.8 | 0.00 | 0.00 | 0.00 | 76 | 1003.8 |
| 20260904013039 | 84 | 152 | 5.2 | 8.7 | 0.00 | 0.00 | 0.00 | 77 | 1003.7 |
| 20260904011538 | 84 | 101 | 2.6 | 10.4 | 0.00 | 0.00 | 0.00 | 77 | 1003.4 |
| 20260904010041 | 84 | 120 | 4.3 | 8.7 | 0.00 | 0.00 | 0.00 | 77 | 1003.3 |
| 20260904004534 | 84 | 119 | 2.6 | 8.7 | 0.00 | 0.00 | 0.00 | 77 | 1003.4 |
| 20260904003035 | 84 | 73 | 3.5 | 11.3 | 0.00 | 0.00 | 0.00 | 76 | 1003.5 |
| 20260904001534 | 85 | 136 | 6.1 | 12.2 | 0.00 | 0.00 | 0.00 | 76 | 1003.5 |
| 20260904000032 | 85 | 130 | 7.8 | 16.5 | 0.00 | 0.00 | 0.00 | 75 | 1003.4 |
| 20260903234531 | 85 | 110 | 7.8 | 15.6 | 0.00 | 0.00 | 0.00 | 74 | 1003.4 |
| 20260903233030 | 86 | 136 | 9.6 | 16.5 | 0.00 | 0.00 | 0.00 | 74 | 1003.2 |
| 20260903231534 | 86 | 120 | 8.7 | 13.9 | 0.00 | 0.00 | 0.00 | 73 | 1003.2 |
| 20260903230035 | 86 | 82 | 9.6 | 14.8 | 0.00 | 0.00 | 0.00 | 71 | 1003.1 |
| 20260903224548 | 87 | 84 | 5.2 | 14.8 | 0.00 | 0.00 | 0.00 | 69 | 1003.0 |
| 20260903223029 | 88 | 136 | 7.8 | 13.9 | 0.00 | 0.00 | 0.00 | 68 | 1003.2 |
| 20260903221532 | 89 | 113 | 6.1 | 13.0 | 0.00 | 0.00 | 0.00 | 66 | 1003.2 |
| 20260903220027 | 91 | 130 | 7.8 | 14.8 | 0.00 | 0.00 | 0.00 | 60 | 1003.0 |
| 20260903214537 | 90 | 143 | 10.4 | 16.5 | 0.00 | 0.00 | 0.00 | 61 | 1002.9 |
| 20260903213029 | 91 | 129 | 9.6 | 14.8 | 0.00 | 0.00 | 0.00 | 61 | 1003.0 |
| 20260903211523 | 90 | 171 | 7.0 | 15.6 | 0.00 | 0.00 | 0.00 | 63 | 1003.0 |
| 20260903210022 | 91 | 138 | 7.8 | 15.6 | 0.00 | 0.00 | 0.00 | 62 | 1003.3 |
| 20260903204520 | 91 | 160 | 7.8 | 15.6 | 0.00 | 0.00 | 0.00 | 63 | 1003.5 |
| 20260903203018 | 91 | 154 | 9.6 | 13.9 | 0.00 | 0.00 | 0.00 | 62 | 1003.6 |
| 20260903201515 | 90 | 148 | 7.0 | 13.9 | 0.00 | 0.00 | 0.00 | 65 | 1003.8 |
| 20260903200012 | 90 | 113 | 7.8 | 0.0 | 0.00 | 0.00 | 0.00 | 66 | 1004.0 |
| 20260903194512 | 89 | 143 | 7.0 | 13.0 | 0.00 | 0.00 | 0.00 | 68 | 1004.1 |
| 20260903193004 | 88 | 138 | 7.0 | 14.8 | 0.00 | 0.00 | 0.00 | 71 | 1004.3 |
| 20260903191600 | 85 | 121 | 7.8 | 12.2 | 0.00 | 0.00 | 0.00 | 75 | 1004.8 |
| 20260903190059 | 85 | 141 | 7.0 | 13.0 | 0.00 | 0.00 | 0.00 | 77 | 1005.1 |
| 20260903184557 | 84 | 137 | 7.8 | 13.9 | 0.00 | 0.00 | 0.00 | 78 | 1005.5 |
| 20260903183056 | 83 | 121 | 6.1 | 13.9 | 0.00 | 0.00 | 0.00 | 81 | 1005.6 |
| 20260903181554 | 83 | 131 | 8.7 | 14.8 | 0.00 | 0.00 | 0.00 | 83 | 1005.9 |
| 20260903180053 | 82 | 138 | 7.0 | 13.9 | 0.00 | 0.00 | 0.00 | 84 | 1006.0 |
| 20260903174555 | 82 | 156 | 8.7 | 14.8 | 0.00 | 0.00 | 0.00 | 84 | 1006.2 |
| 20260903173052 | 83 | 150 | 7.8 | 13.9 | 0.00 | 0.00 | 0.00 | 82 | 1006.5 |
| 20260903171550 | 83 | 143 | 7.8 | 14.8 | 0.00 | 0.00 | 0.00 | 81 | 1006.6 |
| 20260903170049 | 83 | 61 | 8.7 | 14.8 | 0.00 | 0.00 | 0.00 | 82 | 1006.7 |
| 20260903164549 | 83 | 143 | 5.2 | 12.2 | 0.00 | 0.00 | 0.00 | 82 | 1006.5 |
| 20260903163044 | 83 | 153 | 6.1 | 13.9 | 0.00 | 0.00 | 0.00 | 82 | 1006.4 |
| 20260903161543 | 83 | 115 | 7.0 | 13.0 | 0.00 | 0.00 | 0.00 | 82 | 1006.3 |
| 20260903160042 | 83 | 141 | 6.1 | 13.0 | 0.00 | 0.00 | 0.00 | 83 | 1006.1 |
| 20260903154559 | 82 | 124 | 8.7 | 12.2 | 0.00 | 0.00 | 0.00 | 84 | 1006.0 |
| 20260903153036 | 82 | 132 | 7.0 | 12.2 | 0.00 | 0.00 | 0.00 | 85 | 1005.9 |
| 20260903151534 | 81 | 124 | 3.5 | 10.4 | 0.00 | 0.00 | 0.00 | 86 | 1005.8 |
| 20260903150033 | 81 | 164 | 5.2 | 8.7 | 0.00 | 0.00 | 0.00 | 86 | 1005.8 |
| 20260903144530 | 80 | 105 | 4.3 | 8.7 | 0.00 | 0.00 | 0.00 | 86 | 1005.6 |
| 20260903143028 | 80 | 127 | 5.2 | 8.7 | 0.00 | 0.00 | 0.00 | 87 | 1005.6 |
| 20260903141525 | 80 | 114 | 5.2 | 8.7 | 0.00 | 0.00 | 0.00 | 87 | 1005.4 |
| 20260903140023 | 80 | 110 | 3.5 | 7.8 | 0.00 | 0.00 | 0.00 | 87 | 1005.6 |
| 20260903134523 | 79 | 115 | 2.6 | 6.1 | 0.00 | 0.00 | 0.00 | 87 | 1005.6 |
| 20260903133022 | 79 | 137 | 1.7 | 4.3 | 0.00 | 0.00 | 0.00 | 87 | 1005.4 |